Theta_e
313 312 312 312 313 314 314 312 312 314 313 313 317 322 322 321 324 330 329 328 329 328 325 332 334 332 324 328 326 322 326 329 327 324 323 321 321 319 321 324 328 332 331 332 335
312 312 311 312 313 311 313 311 310 312 314 312 314 321 322 321 326 328 327 328 329 327 330 332 330 326 328 329 328 324 325 328 326 323 322 321 320 319 325 325 329 335 333 334 335
310 311 310 312 312 313 313 311 310 309 312 316 315 321 322 322 326 326 327 327 329 328 330 328 328 326 329 330 328 325 328 326 321 320 320 321 320 318 323 325 327 332 333 333 334
311 312 310 311 312 314 314 312 310 311 312 315 315 322 322 323 329 324 324 327 328 327 327 324 323 328 330 329 329 329 326 327 322 317 320 319 317 319 321 321 320 329 333 333 332
311 311 309 310 311 312 313 311 310 311 312 314 314 318 322 325 324 321 323 325 328 327 321 326 323 325 330 327 329 331 331 326 318 317 317 315 317 317 316 315 327 332 333 332 332
310 311 310 310 311 310 313 313 313 313 312 313 314 312 320 326 321 322 323 325 327 327 322 324 325 323 326 327 330 330 332 324 317 318 318 317 318 319 315 318 333 334 333 331 332
310 311 310 309 309 310 312 311 312 313 313 313 313 312 317 320 319 320 322 324 326 326 323 322 325 325 326 327 326 328 333 321 318 317 318 318 321 320 317 322 334 334 333 330 330
309 310 310 309 309 309 309 310 311 313 314 313 313 312 312 315 318 320 321 323 326 324 324 324 325 326 327 326 327 328 330 329 323 316 317 318 322 319 315 313 326 331 331 331 330
310 310 310 309 308 308 308 309 312 313 313 313 313 312 313 311 314 319 319 321 321 321 321 323 323 326 327 330 331 330 333 330 327 316 318 320 324 323 318 315 314 314 321 331 331
310 310 309 309 307 307 308 309 310 310 311 313 312 311 311 312 313 315 317 321 318 317 320 322 324 329 328 333 336 333 334 328 331 320 318 320 324 323 318 319 319 315 312 315 327
310 310 310 308 307 306 309 309 308 308 310 312 312 311 310 311 313 313 317 317 319 319 323 322 328 331 330 330 328 329 331 330 328 322 319 320 321 322 320 318 316 317 316 314 313
310 310 309 308 307 306 307 307 306 306 307 307 309 310 308 311 314 313 317 319 319 324 322 323 329 327 327 328 330 329 331 331 324 322 320 320 321 319 318 318 317 316 315 314 313
309 309 308 308 307 308 307 307 307 308 306 308 308 310 309 309 313 312 315 317 320 321 324 327 326 324 327 329 331 330 332 331 329 320 320 321 322 321 319 318 317 317 317 315 314
309 309 308 307 306 306 307 307 307 307 303 304 309 309 310 310 311 311 312 317 319 322 322 325 323 325 327 329 330 334 329 330 324 326 328 319 327 316 317 319 317 319 315 315 313
309 308 307 304 304 305 306 306 306 305 296 301 309 308 309 310 309 311 311 316 321 322 321 325 324 326 328 328 328 331 321 325 326 324 321 318 321 319 315 316 314 314 316 316 314
308 307 306 303 304 305 306 306 305 300 302 301 309 310 310 309 308 313 313 314 320 320 320 322 320 323 326 325 326 322 321 323 320 320 330 322 321 320 317 316 315 313 312 313 312
308 307 305 303 304 305 306 305 306 303 297 301 312 310 309 309 309 309 316 317 325 325 325 323 323 321 322 327 325 324 329 326 328 328 330 317 320 324 317 314 313 313 311 311 310
306 305 303 303 304 305 305 305 300 297 298 306 311 312 312 311 311 311 313 314 322 323 324 326 328 324 323 327 329 327 329 327 332 328 324 314 323 322 315 315 311 311 310 308 307
306 304 303 302 304 303 303 304 299 297 301 305 305 311 313 312 313 313 313 312 314 324 326 324 325 322 323 323 325 327 329 321 314 304 314 315 314 313 311 312 311 311 308 307 305
303 302 302 301 302 303 304 302 298 302 305 307 305 306 307 314 314 315 315 316 314 321 322 321 324 323 324 320 322 324 319 321 317 317 318 316 315 316 314 313 312 308 308 307 306
301 301 299 300 301 301 303 298 300 301 301 304 305 308 310 311 314 317 317 314 317 321 322 318 321 322 321 325 326 321 324 319 317 315 319 317 316 310 314 314 312 308 307 306 305
296 300 297 299 300 299 298 296 300 300 300 302 305 305 308 312 313 315 318 319 318 320 323 319 321 323 325 312 317 320 324 317 324 320 314 315 315 309 312 313 310 308 308 305 304
297 298 297 299 301 295 294 299 299 300 301 303 303 303 302 304 314 316 314 317 320 321 320 317 321 325 321 316 315 321 318 320 315 314 316 318 317 309 307 309 307 307 303 303 303
297 300 298 297 288 290 290 297 300 300 300 302 304 303 304 304 304 314 316 316 319 320 317 315 318 322 324 321 321 323 319 320 318 317 319 319 315 309 307 307 306 304 303 303 302
297 295 295 299 298 297 293 297 299 301 301 301 303 306 307 308 307 307 317 317 319 319 315 316 320 314 315 317 318 321 321 318 320 319 319 318 314 310 307 305 305 305 303 302 303
300 300 297 287 296 299 298 297 299 300 302 303 305 304 307 309 309 313 319 319 320 319 315 312 314 314 310 316 317 317 320 317 319 319 316 315 315 313 306 305 303 304 304 304 304
297 297 296 298 297 298 299 299 300 301 301 302 305 306 308 309 308 313 315 318 319 316 316 315 310 314 313 314 315 319 317 318 317 317 317 318 316 310 309 306 305 305 304 305 304
Wind_Speed
29 27 26 23 21 21 20 19 19 17 17 19 17 18 19 15 14 20 12 17 23 5 19 16 12 6 7 4 3 1 3 3 4 6 4 5 5 1 2 6 3 2 6 8 29
32 29 28 25 23 23 22 21 21 18 17 18 18 18 19 15 15 19 21 25 25 13 18 17 4 3 4 3 3 2 3 7 5 4 5 7 5 7 5 4 3 2 3 25 32
35 32 29 27 25 24 22 22 21 20 17 16 17 18 18 15 4 8 28 26 21 25 14 16 16 10 2 4 4 4 4 4 1 3 8 8 5 4 9 3 7 9 9 17 21
35 33 31 28 25 22 22 22 22 20 19 18 16 15 20 17 11 11 29 37 30 21 23 15 9 9 7 4 4 3 6 4 1 2 3 9 7 5 5 6 8 12 20 20 16
36 35 33 30 27 25 20 21 23 22 21 19 19 15 18 6 8 5 15 36 32 28 20 12 8 5 7 7 2 2 2 4 1 1 3 7 4 5 6 2 9 17 12 13 19
38 37 35 32 29 26 20 20 22 22 21 20 17 17 8 15 13 20 3 29 36 29 20 17 9 8 5 4 6 4 4 3 3 4 2 5 2 2 6 6 9 15 14 11 17
41 40 36 33 30 26 23 19 19 22 21 19 18 16 7 17 4 12 13 22 34 33 19 22 14 10 6 5 4 3 3 2 3 4 3 4 1 6 3 8 11 11 12 11 16
41 42 39 34 31 26 23 16 18 20 21 19 17 14 9 17 13 5 20 17 35 26 24 25 24 6 4 4 4 5 4 6 4 6 3 4 6 9 7 10 10 10 10 12 15
43 44 40 36 32 25 21 13 15 16 19 19 13 9 7 10 12 23 17 23 26 22 17 14 12 7 4 7 3 5 4 7 3 9 3 6 5 9 8 9 9 10 11 13 13
46 45 43 39 32 27 21 17 12 10 11 17 7 4 5 12 15 26 23 27 16 14 5 5 5 9 7 11 20 7 5 7 8 9 6 5 7 4 4 10 14 11 10 11 13
49 47 44 40 34 30 25 19 7 2 7 7 7 3 4 4 19 13 17 21 20 9 10 7 9 22 30 22 7 9 8 11 8 5 5 11 8 11 8 4 7 9 10 12 13
50 49 45 39 35 33 34 7 9 6 4 12 6 14 2 4 5 7 23 15 13 16 12 7 21 23 16 11 17 14 12 11 3 3 7 6 13 10 7 7 8 10 10 10 8
52 50 46 40 36 34 30 17 22 7 4 5 11 7 5 7 5 7 15 9 20 20 24 16 22 16 15 17 18 8 18 11 7 4 1 3 8 7 8 6 9 13 10 9 12
54 51 47 41 29 31 24 25 17 10 3 5 8 7 12 7 7 13 11 5 8 25 21 19 12 19 22 22 19 18 7 9 6 10 6 6 5 5 8 14 9 19 10 13 12
56 52 49 46 22 23 25 33 16 7 2 8 8 10 13 15 8 13 17 11 15 18 12 16 26 26 27 33 23 6 10 8 5 6 4 4 2 6 3 7 11 14 17 17 15
57 54 51 34 26 30 38 36 16 4 10 5 7 15 15 17 11 3 14 21 7 13 19 6 14 18 18 11 12 10 10 8 5 1 9 9 8 5 6 8 6 7 11 13 11
57 54 47 39 18 39 45 16 7 7 4 5 7 16 22 20 19 17 15 26 15 14 20 16 18 8 16 17 7 8 18 4 4 4 5 7 7 12 7 8 9 11 10 11 10
56 52 42 31 45 47 35 10 5 7 10 2 8 16 19 14 16 21 18 11 25 20 15 24 14 23 21 23 15 25 18 6 8 5 4 4 9 8 13 10 9 7 6 6 8
51 33 31 39 53 43 14 14 11 8 12 7 4 7 13 18 8 18 19 29 11 17 17 21 18 16 25 13 19 11 14 11 7 3 3 5 6 9 7 9 9 10 5 7 7
28 23 20 45 42 26 10 16 6 6 6 5 10 7 8 15 17 18 20 18 26 27 19 7 13 21 20 13 14 15 10 7 1 7 5 4 5 7 7 11 13 9 10 9 7
23 6 18 38 32 6 9 9 5 5 7 6 7 2 6 9 16 15 13 21 32 25 21 7 17 11 14 14 20 8 13 6 5 4 9 4 7 9 17 17 16 12 11 10 9
4 4 27 33 5 3 7 9 6 7 7 6 2 8 8 1 19 22 16 17 35 29 17 15 15 11 27 1 8 19 20 6 13 8 4 4 6 7 16 15 10 11 11 8 8
4 4 18 9 8 4 3 6 3 8 12 10 14 13 10 14 11 19 23 23 26 33 26 10 10 15 6 4 3 18 11 19 4 4 7 6 6 4 6 7 9 11 9 8 9
4 5 3 2 2 6 5 5 9 11 11 14 10 13 10 16 18 11 19 13 29 30 18 10 6 21 23 26 27 30 21 29 13 6 8 17 5 5 5 11 8 8 11 11 9
2 3 5 7 11 8 7 4 17 9 14 15 10 21 18 15 21 25 23 26 26 33 19 14 4 5 2 14 13 23 25 20 20 18 11 14 8 8 9 9 13 15 9 8 9
4 4 2 2 8 17 13 10 12 14 10 16 20 21 26 27 22 25 18 21 24 32 21 3 7 11 2 17 20 13 25 16 23 17 9 4 9 9 8 2 7 11 13 12 12
4 3 5 8 10 11 16 20 16 10 15 24 25 21 25 36 26 29 23 21 25 31 28 22 9 11 7 13 12 7 24 26 24 26 28 24 22 9 8 10 13 15 14 16 12
Wind_Direction
227 225 227 229 227 230 230 234 233 234 234 227 223 226 222 218 219 214 202 208 209 215 184 225 237 290 322 304 288 114 74 205 223 165 214 176 127 125 68 109 72 14 153 173 155
228 221 227 226 223 226 228 232 235 233 233 229 225 224 221 212 224 224 212 212 212 214 166 170 157 68 294 261 280 176 153 217 217 187 184 167 140 148 104 117 46 34 19 151 154
226 219 223 223 221 219 221 229 233 231 230 224 223 218 213 198 235 233 212 207 203 204 178 172 155 129 313 207 230 187 206 229 237 232 172 162 135 159 132 207 196 184 164 150 157
223 216 221 217 214 211 218 225 230 228 224 223 214 212 208 182 219 193 213 210 201 202 211 179 151 162 167 234 230 218 225 256 223 13 174 160 132 124 182 210 184 169 166 160 171
220 214 218 217 213 213 215 221 225 228 224 223 220 218 189 202 223 179 216 207 201 205 198 183 160 195 168 189 164 250 299 234 233 140 80 113 144 172 201 157 116 135 162 179 182
216 213 216 214 208 213 211 212 218 223 222 219 220 212 208 240 218 229 349 203 195 200 205 195 186 194 166 163 166 222 231 276 239 176 67 129 131 134 226 122 136 154 177 185 192
214 209 212 210 208 207 209 211 217 217 215 212 212 211 268 219 215 243 220 197 194 197 195 206 207 187 149 140 199 155 204 295 226 199 177 129 250 217 172 152 161 177 180 191 207
212 206 207 208 203 202 206 202 210 209 208 197 193 191 234 227 245 246 221 200 197 202 205 209 213 207 155 114 87 148 176 202 227 153 221 152 241 238 183 152 193 192 189 197 209
207 203 202 201 199 196 196 190 186 197 203 190 169 179 238 214 221 234 236 186 188 202 206 200 192 198 132 141 132 197 191 202 193 199 135 180 240 239 182 187 202 210 205 206 214
201 197 196 195 198 190 181 172 162 168 186 187 140 176 227 213 184 232 249 199 173 155 148 171 202 183 178 183 207 161 200 190 205 207 184 188 245 263 185 191 218 213 216 211 216
196 191 188 190 191 183 158 128 112 101 202 214 180 195 118 157 191 207 227 177 171 176 180 196 193 198 195 199 177 168 162 195 213 197 137 202 215 235 222 221 228 230 224 219 214
191 185 182 183 179 173 165 171 159 144 170 246 278 219 212 135 178 238 216 181 182 183 159 178 211 203 186 178 197 166 193 197 226 182 171 205 238 242 245 236 209 228 231 220 217
187 180 177 174 168 168 172 153 163 131 120 242 216 195 206 167 200 221 199 189 184 184 185 193 208 190 179 183 193 184 199 198 201 106 7 107 272 222 249 236 246 247 229 232 216
181 175 170 163 161 174 175 151 143 150 45 253 200 222 191 150 248 182 234 166 188 191 190 209 199 177 189 195 186 204 159 189 152 151 201 162 270 249 216 236 221 243 229 228 228
175 170 163 165 159 177 167 174 141 101 130 229 176 183 173 187 128 210 203 246 198 171 164 199 179 179 190 196 190 188 128 147 182 174 127 199 214 265 188 236 230 231 235 228 226
169 164 158 160 161 170 157 150 130 100 225 212 135 169 159 199 221 88 182 215 216 189 200 190 189 177 194 174 176 124 95 47 39 59 222 196 188 246 198 206 246 226 228 222 211
162 160 157 162 158 159 159 139 156 196 249 210 168 175 182 194 207 193 188 200 190 186 185 195 182 169 159 149 163 146 156 134 190 206 231 159 183 238 230 240 225 233 231 219 206
160 154 153 166 157 157 150 158 161 199 205 204 164 172 192 175 206 198 193 212 222 194 181 185 191 172 176 187 181 175 175 159 170 183 195 120 222 237 220 219 214 226 243 192 185
148 139 151 155 152 148 150 183 198 176 191 146 101 177 205 213 176 190 205 221 248 193 196 184 207 184 179 178 157 179 195 168 97 349 99 204 280 298 209 229 241 242 200 191 172
134 137 153 158 157 153 180 203 192 169 112 127 208 189 173 209 193 189 192 214 221 212 192 216 181 185 183 144 194 183 157 162 208 145 218 250 274 222 220 216 231 204 203 206 199
116 118 152 151 149 164 204 212 177 173 160 154 190 263 239 206 209 203 192 224 205 198 185 219 175 168 163 202 173 157 188 180 133 173 188 161 244 203 203 216 202 202 199 187 189
94 120 164 150 132 164 205 180 171 178 186 222 228 228 229 281 222 210 222 216 197 191 185 204 191 167 193 22 204 179 189 177 188 206 231 163 258 189 207 208 175 191 199 204 187
98 103 167 151 183 180 271 204 157 171 182 185 213 211 219 248 253 209 216 208 191 191 169 191 163 158 167 344 303 198 180 202 113 91 200 156 250 191 182 172 188 180 185 185 180
115 128 121 181 167 137 125 224 209 213 238 214 229 220 217 239 219 272 213 230 195 199 176 164 176 186 188 186 182 189 200 198 186 167 187 211 203 274 182 180 185 184 172 181 187
96 180 169 174 210 197 158 209 210 220 210 203 243 236 221 236 233 252 216 204 214 197 175 177 155 148 183 172 180 203 195 190 200 203 191 223 206 225 205 189 179 175 177 167 193
120 135 105 162 178 190 195 213 221 222 229 219 228 226 223 230 226 229 207 202 203 183 178 217 153 158 356 170 184 195 202 199 210 213 257 178 218 194 207 149 143 172 181 190 201
109 77 116 173 171 179 211 224 234 229 238 234 233 227 231 225 224 230 203 205 183 177 187 181 152 160 194 165 135 206 195 200 210 209 211 215 220 156 184 185 189 191 190 197 195